Preview of NWS' New Version of Forecast
This preview is not operational and should not be used for support decisions.

Regional Weather Roundup (RWR)

Issued by National Weather Service (NWS)

                            
000
ASUS45 KBOU 172110
RWRCO 

WEATHER ROUNDUP FOR COLORADO
NATIONAL WEATHER SERVICE DENVER/BOULDER CO
200 PM MST SUN FEB 17 2019

NOTE: "FAIR" INDICATES FEW OR NO CLOUDS BELOW 12000 FEET WITH NO
SIGNIFICANT WEATHER AND/OR OBSTRUCTIONS TO VISIBILITY.

COZ001>005-013-030-031-172200-
...NORTHWEST COLORADO...
  
CITY           SKY/WX    TMP DP  RH WIND       PRES   REMARKS
CRAIG          FAIR      25  12  58 E6        29.82F WCI  18          
HAYDEN         FAIR      18  11  74 S5        29.81F WCI  11          
MEEKER         FAIR      32   8  36 CALM      29.77F                  
RANGELY        FAIR      25  13  60 CALM      29.82F                  
RABBIT EARS PA FAIR      10   9  92 W3        29.67F                  
STEAMBOAT SPGS FAIR      23   8  53 CALM      29.78F                  
WALDEN         FAIR      18   7  62 NW3       29.75S                  
$$

COZ006>008-011-172200-
...WEST CENTRAL VALLEYS...
  
CITY           SKY/WX    TMP DP  RH WIND       PRES   REMARKS
GRAND JUNCTION FAIR      37  13  37 NE5       29.79F                  
MONTROSE       FAIR      34  11  38 NW5       29.80F WCI  30          
EAGLE          FAIR      33   6  32 CALM      29.80F                  
RIFLE          FAIR      33   9  36 CALM      29.80F                  
DELTA          FAIR      39  10  30 NE3       29.81F                  
NUCLA          PTSUNNY   32  19  59 CALM      29.81F                  
$$

COZ017>023-064>068-172200-
...SOUTHWEST COLORADO...
  
CITY           SKY/WX    TMP DP  RH WIND       PRES   REMARKS
DURANGO        CLOUDY    28  12  51 E5        29.80F WCI  23          
CORTEZ         CLOUDY    34  14  43 S9        29.79F WCI  27          
PAGOSA SPRINGS CLOUDY    28   5  38 SE3       29.79F                  
TELLURIDE      CLOUDY    21   0  39 CALM      29.72F                  
WOLF CREEK PAS PTSUNNY    5   1  85 SW13G20   29.73F WCI -12          
$$

COZ009-010-012-014-032>034-037-058>063-172200-
...CENTRAL COLORADO...
  
CITY           SKY/WX    TMP DP  RH WIND       PRES   REMARKS
ASPEN          PTSUNNY   24  -1  33 NW5       29.72F WCI  18          
BUENA VISTA    PTSUNNY   27  -5  25 SE3       29.73F                  
COPPER MTN     CLOUDY     9  -2  61 NW8       29.63S HAZE    WCI  -4  
BERTHOUD PASS  CLOUDY     0 -11  60 N13G24    29.61R WCI -18          
COTTONWOOD PAS CLOUDY    23  -6  28 CALM      29.69F                  
GUNNISON       FAIR       6  -4  63 E5        29.82F WCI  -3          
GRANBY         FAIR      19   4  52 CALM      29.76S                  
KREMMLING      FAIR      19   9  63 CALM      29.79F                  
LEADVILLE      CLOUDY    13  -8  39 VRB3      29.67F                  
MONARCH PASS   FAIR       3   0  85 MISG      29.75S                  
SALIDA         FAIR      32  -4  20 S14       29.82F WCI  22          
SUNLIGHT       PTSUNNY   10   3  72 MISG      29.73S                  
WILKERSON PASS PTSUNNY   14  -8  37 SW7       29.69F WCI   4          
$$

COZ069>075-172200-
...SAN LUIS VALLEY/SANGRE DE CRISTO MOUNTAINS...
  
CITY           SKY/WX    TMP DP  RH WIND       PRES   REMARKS
ALAMOSA        FAIR      24   6  46 CALM      29.79F                  
DEL NORTE      FAIR      17   1  49 E7        29.79F WCI   8          
LA VETA PASS   NOT AVBL                                               
SAGUACHE       FAIR      23   7  50 CALM      29.79F                  
$$

COZ035-036-038>040-172200-
...NORTHERN COLORADO FRONT RANGE...
  
CITY           SKY/WX    TMP DP  RH WIND       PRES   REMARKS
DENVER INTL AP FAIR      29  18  63 E18       29.82R WCI  16          
AURORA         PTSUNNY   31  17  56 E15       29.80S WCI  20          
FRONT RANGE AP MOSUNNY   32  19  59 E16G22    29.83S WCI  21          
ERIE MUNI ARPT FAIR      32  14  46 E9        29.90R WCI  25          
BOULDER MUN AP PTSUNNY   32  16  51 E8G22     29.83R WCI  25          
CENTENNIAL     PTSUNNY   30  11  45 E14       29.79R WCI  19          
BROOMFIELD     PTSUNNY   30  16  55 NE13      29.83R WCI  20          
FORT COLLINS   FAIR      30  13  49 E15       29.87R WCI  19          
LONGMONT       PTSUNNY   35  11  36 E8        29.87R WCI  29          
$$

COZ041-046-047-076>085-087-088-172200-
...PIKES PEAK/PALMER DIVIDE AND SOUTHERN FOOTHILLS...
  
CITY           SKY/WX    TMP DP  RH WIND       PRES   REMARKS
COLO. SPRINGS  PTSUNNY   36 -10  13 NE3       29.76F                  
A. F. ACADEMY  FAIR      37 -15  10 SW15G22   29.73F                  
SCHRIEVER AFB  NOT AVBL                                               
CHEYENNE MTN   PTSUNNY   31 -10  17 E7        29.69F WCI  24          
ELLICOTT       NOT AVBL                                               
FALCON         PTSUNNY   29   1  30 E12G20    29.77F WCI  19          
FORT CARSON    FAIR      38  -9  13 SE9       29.75F                  
LIMON          FAIR      31  12  45 E10       29.82F WCI  22          
MONUMENT HILL  PTSUNNY   27  10  50 NE10      29.77S WCI  17          
CANON CITY     NOT AVBL                                               
WALSENBURG     NOT AVBL                                               
TRINIDAD       FAIR      40 -13  10 VRB5      29.76F                  
$$

COZ042>045-048>051-090-091-172200-
...NORTHEAST COLORADO...
  
CITY           SKY/WX    TMP DP  RH WIND       PRES   REMARKS
GREELEY ARPT   FAIR      28  12  51 NE18G25   29.89R WCI  15          
AKRON          FAIR      25   8  48 N15G24    29.90S WCI  13          
BURLINGTON     FAIR      31  12  45 N17       29.92F WCI  19          
WRAY           FAIR      28   5  37 N12       29.97S WCI  18          
YUMA           FAIR      27   5  39 N12G21    29.94R WCI  16          
STERLING       FAIR      28   7  40 NE16      29.93S WCI  17          
HOLYOKE        FAIR      25   7  46 N20G25    29.98S WCI  11          
FORT MORGAN      N/A     30   6  36 NE13      29.91R WCI  20          
$$

COZ086-089-092>099-172200-
...SOUTHEAST COLORADO...
  
CITY           SKY/WX    TMP DP  RH WIND       PRES   REMARKS
PUEBLO         PTSUNNY   45  -2  14 SW9G20    29.77F                  
LA JUNTA       FAIR      45   1  16 SE13      29.82F                  
LAMAR          FAIR      42  18  37 E13G22    29.88S                  
SPRINGFIELD      N/A     41   3  20 SE12G18   29.84F                  
$$